Location: Black Kettle National Grasslands
(35.7000°N, 99.8000°W)
Time: 13:58:46
(UTC-05:00)

OTV 5 (USA 277) - Visible Passes

Search period start: 17 October 2019 00:00
Search period end: 27 October 2019 00:00
Orbit: 310 x 324 km, 54.5° (Epoch: 08 October)

Date Brightness Start Highest point End Pass type
(mag) Time Alt. Az. Time Alt. Az. Time Alt. Az.
17 Oct ? 06:58:12 10° N 06:59:37 13° NE 07:01:03 10° ENE visible
18 Oct ? 07:11:52 10° NNW 07:14:23 31° NE 07:16:52 10° ESE visible
20 Oct ? 06:08:49 19° NNE 06:09:08 20° NE 06:11:14 10° E visible
21 Oct ? 06:23:36 56° NNE 06:23:47 58° NE 06:26:28 10° SE visible
22 Oct ? 06:38:32 34° SW 06:38:32 34° SW 06:40:49 10° SSE visible
25 Oct ? 20:28:35 10° SSW 20:29:09 15° SSW 20:29:09 15° SSW visible
26 Oct ? 20:43:00 10° WSW 20:44:03 20° WSW 20:44:03 20° WSW visible
